This is the latest recevied weather packets stored in our database for station/object N9EA. If no packets are shown the sender has not sent any weather packets the latest 10 day(s).
| Time | Temp. | Humidity | Pressure | Rain* | Wind** | Luminosity | Snow |
|---|---|---|---|---|---|---|---|
| 1778118397 | 9.44° C | 46% | 1015 hPa | 0 mm | - | 0 W/m² | - |
| 1778118093 | 9.44° C | 44% | 1015 hPa | 0 mm | - | 0 W/m² | - |
| 1778117790 | 10° C | 44% | 1015 hPa | 0 mm | - | 0 W/m² | - |
| 1778117487 | 10° C | 44% | 1014.9 hPa | 0 mm | - | 0 W/m² | - |
| 1778117184 | 10° C | 43% | 1014.9 hPa | 0 mm | - | 0 W/m² | - |
| 1778116879 | 10.56° C | 41% | 1014.9 hPa | 0 mm | - | 0 W/m² | - |
| 1778116578 | 10.56° C | 41% | 1015 hPa | 0 mm | - | 1 W/m² | - |
| 1778116274 | 10.56° C | 42% | 1014.8 hPa | 0 mm | - | 1 W/m² | - |
| 1778115969 | 10.56° C | 42% | 1014.7 hPa | 0 mm | - | 2 W/m² | - |
| 1778115665 | 10.56° C | 41% | 1014.7 hPa | 0 mm | - | 4 W/m² | - |
| 1778115363 | 11.11° C | 40% | 1014.8 hPa | 0 mm | - | 6 W/m² | - |
| 1778115058 | 11.11° C | 41% | 1014.7 hPa | 0 mm | - | 8 W/m² | - |
| 1778114756 | 11.11° C | 40% | 1014.8 hPa | 0 mm | - | 10 W/m² | - |
| 1778114453 | 11.11° C | 39% | 1014.6 hPa | 0 mm | - | 13 W/m² | - |
| 1778114149 | 11.67° C | 39% | 1014.5 hPa | 0 mm | - | 16 W/m² | - |
| 1778113844 | 11.67° C | 38% | 1014.9 hPa | 0 mm | - | 22 W/m² | - |
| 1778113541 | 11.67° C | 37% | 1014.8 hPa | 0 mm | - | 25 W/m² | - |
| 1778113237 | 11.67° C | 38% | 1014.8 hPa | 0 mm | - | 32 W/m² | - |
| 1778112933 | 12.22° C | 37% | 1014.9 hPa | 0 mm | - | 39 W/m² | - |
| 1778112631 | 12.22° C | 37% | 1014.8 hPa | 0 mm | - | 48 W/m² | - |
| 1778112326 | 11.67° C | 39% | 1014.9 hPa | 0 mm | - | 59 W/m² | - |
| 1778112017 | 12.22° C | 38% | 1014.8 hPa | 0 mm | - | 47 W/m² | - |
| 1778111714 | 11.67° C | 37% | 1014.8 hPa | 0 mm | - | 67 W/m² | - |
| 1778111410 | 11.67° C | 38% | 1014.7 hPa | 0 mm | - | 67 W/m² | - |
| 1778111108 | 11.67° C | 38% | 1014.7 hPa | 0 mm | - | 54 W/m² | - |
* Rain latest hour (hover to see other rain measurements)
** Current wind speed in m/s (hover to see current wind gust speed)